NOAA 16 DEB, 42396

Orbit data source: Space-Track

NOAA 16 DEB, 42396 is space debris in SSO originally from a launch on Thu, 21 Sep 2000 UTC launched from the Air Force Western Test Range (AFWTR). Debris objects in space refer to the collection of defunct objects orbiting the Earth. Examples of debris include non-operational satellites, rocket bodies, and fragments generated from explosions, collisions, or faulty payload assembly.

Loading next visibility...
Identifier
42396, 2000-055SQ
Orbit
SSO
Country
Flag of USUS
Related business
Manufacturer
Unknown
Mission
Spacecraft
Bus & Motor
Unknown
Mass
Unknown
Launch date (UTC)
2000-09-21 (26 years ago)
Launch vehicle
Unknown
Launch site
Air Force Western Test Range (AFWTR)
Object type
Payload
Rocket body
Debris
Shape & HBR
Unknown shape, 0.1 m
Radar Cross Section
Medium (>0.1 m² and <1 m²)

Expand to show TLE details & history
Last TLE update: 2 days ago

TLE from 2 days ago
0 NOAA 16 DEB
1 42396U 00055SQ  26234.40658599  .00008759  00000-0  17766-2 0  9995
2 42396  98.8041  32.9379 0026033 167.4049 192.7806 14.61244990546989
Epoch: 2026-08-22T09:45Z
TLE epoch observation values (Epoch: 2026-08-22T09:45:29.029Z)
Latitude
-0.00002°
Longitude
-84.1505°
Altitude
710.073 km
Speed
7.491 km/s
True Right ascension
02h 11m 45s
True Declination
0° 00' 00"
Sunlit
Object was in full shadow at epoch
Visualization orbit readout
Latitude
Unknown
Longitude
Unknown
Altitude
Unknown
Speed
Unknown
Apparent Right ascension
Unknown
Apparent Declination
Unknown
Sunlit
N/A
Visualization observer readout
Local Sidereal Time
10:21:16
Azimuth
Unknown
Elevation
Unknown
Doppler factor
Unknown
Orbital elements
Apogee altitude
704.656 km
Perigee altitude
667.874 km
Semi-major axis
7,064.402 km
Eccentricity
0.0026
Inclination
98.8041°
RAAN
32.9379°
Arg. of periapsis
167.4049°
True anomaly
192.71482°
Mean anomaly
192.7806°
Eccentric anomaly
192.74769°
Mean motion
3.65536 °/min
Orbital period
98.49 mins
BSTAR
0.0017766
Loading maneuver chart data...
Computing Atmospheric mass density...
Loading historical data...
Loading historical data...
Loading historical data...
Loading historical data...
Loading historical data...
Loading historical data...
Loading historical data...

Documentation

Showing up to 5 results
|